Location: Nelson
(41.2830°S, 173.2830°E)
Time: 06:23:56
(UTC+12:00)

Cosmos 1076 Rocket - Pass Details

Date: 14 May 2021
Orbit: 588 x 613 km, 82.5° (Epoch: 17 June)

Event Time Altitude Azimuth Distance (km) Brightness Sun altitude
Rises 18:43:27 0° 355° (N) 2,819 7.2 -15.9°
Reaches altitude 10° 18:45:37 10° 355° (N) 1,929 6.3 -16.3°
Maximum altitude 18:49:53 85° 81° (E) 611 3.4 -17.1°
Drops below altitude 10° 18:54:15 10° 171° (S) 1,971 6.0 -17.9°
Enters shadow 18:56:30 - 171° (S) 2,886 6.8 -18.3°
